Regional Weather Roundup
Issued by NWS Bismarck, ND

Home | Current Version | Previous Version | Text Only | Print | Product List | Glossary On
Versions: 1 2 3 4 5 6 7 8 9 10 11 12 13 14 15 16 17 18 19 20 21 22 23 24 25 26 27 28 29 30 31 32 33 34 35 36 37 38 39 40 41 42 43 44 45 46 47 48 49 50
000
ASUS43 KBIS 272120
RWRBIS

NWR BROADCAST TEXT
NATIONAL WEATHER SERVICE BISMARCK ND
300 PM CST SAT DEC 27 2014

NOTE: "FAIR" INDICATES FEW OR NO CLOUDS BELOW 12,000 FEET WITH NO
SIGNIFICANT WEATHER AND/OR OBSTRUCTIONS TO VISIBILITY.


CITY           SKY/WX    TMP DP  RH WIND       PRES   REMARKS
WILLISTON      CLOUDY    25  16  68 SW9       29.97F WCI  15
MINOT          MOSUNNY   24  15  68 W12       29.94S WCI  13
MINOT AFB      PTSUNNY   21  18  86 NW10      29.94S WCI  10
BISMARCK       CLOUDY    30  20  66 W13       29.98F WCI  20
DICKINSON      PTSUNNY   25  16  68 W16       29.94S WCI  12
GARRISON         N/A     25  17  72 NW18      29.94S WCI  11
HETTINGER ARPT PTSUNNY   28  16  60 W23       29.98R WCI  14
JAMESTOWN      CLOUDY    23  17  78 SW6       29.98F WCI  16
BEACH          MOCLDY    25  18  74 W13       29.97F WCI  13
CARRINGTON     CLOUDY    23  23 100 MISG      29.97S
CROSBY         MOCLDY    21  18  86 NW10      29.97R WCI  10
HARVEY         LGT SNOW  23  23 100 SW12      29.95S WCI  12
HAZEN          FAIR      27  18  69 W9        29.97S WCI  17
LINTON         FAIR      27  21  80 SW10      30.00F WCI  17
MANDAN         FAIR      28  19  69 W18       29.97S WCI  16
OAKES            N/A     25  19  80 SW13      30.03F WCI  13
RUGBY          CLOUDY    23  18  80 W10       29.95R WCI  12
STANLEY        FAIR      23  18  80 W12       29.93R WCI  12
TIOGA          FAIR      21  18  86 W13       29.96S WCI   9
WATFORD CITY   FAIR      25  16  68 W12       29.95S WCI  14
$$

CITY           SKY/WX    TMP DP  RH WIND       PRES   REMARKS
GRAND FORKS    CLOUDY    20  14  77 W5        30.02S WCI  13
GRAND FORKS AF PTSUNNY   20  17  88 NW3       30.01F
DEVILS LAKE    CLOUDY    21  16  79 SW7       29.96R WCI  13
FARGO          CLOUDY    24  17  74 SW9       30.04S WCI  14
CANDO          MIX PCPN  21  16  79 W6        29.96R WCI  14
CAVALIER       MIX PCPN  19  16  86 CALM      30.00R
GWINNER        CLEAR     27  21  80 SW12      30.04S WCI  16
LANGDON        FLURRIES  18  14  86 NW7       29.94R WCI   8
ROLLA          LGT SNOW  18  18 100 W3        29.93S
WALHALLA       FLURRIES  18  18 100 N10       30.00R WCI   6
$$

CITY           SKY/WX    TMP DP  RH WIND       PRES   REMARKS
ABERDEEN       SUNNY     27  18  69 SW10      30.07F WCI  17
MOBRIDGE       SUNNY     28  19  69 S7        30.00F
BUFFALO          N/A     29  16  58 W17       29.92S WCI  17
RAPID CITY     SUNNY     22  14  71 E3        30.03F
GLASGOW        CLOUDY    30  15  53 SW12      29.96F
SIDNEY         MOSUNNY   30  18  59 W6        30.00S
WOLF POINT     CLOUDY    28  19  69 SW3       29.99S
GLENDIVE       CLOUDY    30  18  59 W12       29.98F
MILES CITY     CLOUDY    27  20  75 W9        30.01F WCI  18
BAKER          MOSUNNY   26  15  63 W16       29.99S WCI  14
$$

CITY           SKY/WX    TMP DP  RH WIND       PRES   REMARKS
BILLINGS       PTSUNNY   23  13  65 SW18      30.00F WCI   9
GREAT FALLS    MOSUNNY   28  19  69 SW20      29.92F WCI  15
REGINA         LGT SNOW  12   7  79 NE9       30.00  WCI   0
ESTEVAN        FLURRIES  18  12  79 NW13      29.96  WCI   4
$$



USA.gov is the U.S. government's official web portal to all federal, state and local government web resources and services.